Weather History for Macomb, IL

Change the Weather History Date:

Friday, September 13, 2013

  Actual Average (KBRL) Record (KBRL)
Temperature  
Mean Temperature 60 °F 69 °F  
Max Temperature 73 °F 80 °F 98 °F (1927)
Min Temperature 47 °F 58 °F 34 °F (1902)
Degree Days  
Heating Degree Days 5 1  
Month to date heating degree days 9  
Since 1 July heating degree days 13  
Cooling Degree Days 0 5  
Month to date cooling degree days 86  
Year to date cooling degree days 1129  
Growing Degree Days 10 (Base 50)    
Moisture  
Dew Point 46 °F    
Average Humidity 64    
Maximum Humidity 89    
Minimum Humidity 24    
Precipitation  
Precipitation 0.00 in 0.12 in 5.93 in (1961)
Month to date precipitation 1.63  
Year to date precipitation 28.88  
Sea Level Pressure  
Sea Level Pressure 30.17 in    
Wind  
Wind Speed 6 mph (NNE)    
Max Wind Speed 14 mph    
Max Gust Speed 21 mph    
Visibility 10 miles    
Events      
T = Trace of Precipitation, MM = Missing Value Source: NWS Daily Summary

Daily Weather History Graph

Daily Weather History Graph

Search for Another Location

Airport:

Trip Planner

Search our weather history database for the weather conditions in past years. The results will help you decide how hot, cold, wet, or windy it might be!

Date:

Astronomy

Sep. 13, 2013 Rise Set
Actual Time 6:41 AM CDT 7:14 PM CDT
Civil Twilight 6:14 AM CDT 7:41 PM CDT
Nautical Twilight 5:41 AM CDT 8:14 PM CDT
Astronomical Twilight 5:08 AM CDT 8:47 PM CDT
Moon 3:05 PM CDT (9/13) 12:10 AM CDT (9/13)
Length of Visible Light 13h 27m
Length of Day
12h 32m
First Quarter, 61% of the Moon is Illuminated
Sep 13
First Quarter
Sep 19
Full
Sep 26
Last Quarter
Oct 4
New
Oct 11
First Quarter

Hourly Weather History & Observations

Time (CDT) Temp. Dew Point Humidity Pressure Visibility Wind Dir Wind Speed Gust Speed Precip Events Conditions
12:15 AM 60.1 °F 50.9 °F 72% 30.13 in 10.0 mi North 5.8 mph - N/A   Clear
12:35 AM 58.3 °F 51.1 °F 77% 30.13 in 10.0 mi NNW 4.6 mph - N/A   Clear
1:15 AM 57.2 °F 51.1 °F 80% 30.14 in 10.0 mi NW 5.8 mph - N/A   Clear
1:35 AM 57.6 °F 51.1 °F 79% 30.14 in 10.0 mi NNW 6.9 mph - N/A   Clear
1:55 AM 56.8 °F 50.9 °F 80% 30.14 in 10.0 mi NNW 5.8 mph - N/A   Clear
2:15 AM 56.3 °F 50.9 °F 82% 30.14 in 10.0 mi NNW 6.9 mph - N/A   Clear
2:35 AM 56.7 °F 50.9 °F 81% 30.14 in 10.0 mi NNW 5.8 mph - N/A   Clear
2:55 AM 57.2 °F 50.9 °F 79% 30.14 in 10.0 mi North 5.8 mph - N/A   Clear
3:15 AM 56.5 °F 50.9 °F 82% 30.14 in 10.0 mi North 5.8 mph - N/A   Clear
3:35 AM 56.3 °F 50.9 °F 82% 30.15 in 10.0 mi North 5.8 mph - N/A   Clear
3:55 AM 55.4 °F 50.5 °F 84% 30.16 in 10.0 mi North 4.6 mph - N/A   Clear
4:15 AM 54.9 °F 50.5 °F 85% 30.16 in 10.0 mi North 3.5 mph - N/A   Clear
4:35 AM 54.5 °F 50.4 °F 86% 30.17 in 10.0 mi North 4.6 mph - N/A   Clear
4:55 AM 53.8 °F 50.4 °F 88% 30.17 in 10.0 mi NNW 4.6 mph - N/A   Clear
5:15 AM 53.6 °F 50.2 °F 88% 30.17 in 10.0 mi North 3.5 mph - N/A   Clear
5:35 AM 54.1 °F 50.5 °F 88% 30.18 in 10.0 mi North 5.8 mph - N/A   Clear
5:55 AM 54.1 °F 50.5 °F 88% 30.18 in 10.0 mi North 6.9 mph - N/A   Clear
6:15 AM 54.1 °F 50.5 °F 88% 30.19 in 10.0 mi NNE 6.9 mph - N/A   Clear
6:35 AM 54.1 °F 50.9 °F 89% 30.19 in 10.0 mi NNE 6.9 mph - N/A   Clear
6:55 AM 54.1 °F 50.9 °F 89% 30.20 in 10.0 mi NE 4.6 mph - N/A   Clear
7:15 AM 54.3 °F 51.3 °F 89% 30.20 in 10.0 mi NE 4.6 mph - N/A   Clear
7:35 AM 55.4 °F 52.2 °F 89% 30.20 in 10.0 mi NNE 4.6 mph - N/A   Scattered Clouds
7:55 AM 56.7 °F 52.7 °F 87% 30.20 in 10.0 mi NE 6.9 mph - N/A   Mostly Cloudy
8:15 AM 58.1 °F 52.9 °F 83% 30.21 in 10.0 mi NE 9.2 mph - N/A   Scattered Clouds
8:35 AM 59.2 °F 52.5 °F 79% 30.21 in 10.0 mi NE 11.5 mph - N/A   Clear
8:55 AM 60.6 °F 52.0 °F 73% 30.21 in 10.0 mi NE 11.5 mph - N/A   Clear
9:15 AM 62.1 °F 51.6 °F 69% 30.22 in 10.0 mi ENE 12.7 mph 16.1 mph N/A   Clear
9:35 AM 62.6 °F 49.8 °F 63% 30.23 in 10.0 mi ENE 12.7 mph - N/A   Clear
9:55 AM 63.5 °F 49.3 °F 60% 30.23 in 10.0 mi NE 13.8 mph - N/A   Clear
10:15 AM 63.9 °F 48.9 °F 58% 30.23 in 10.0 mi NNE 10.4 mph - N/A   Clear
10:35 AM 65.3 °F 48.6 °F 55% 30.23 in 10.0 mi NE 10.4 mph 17.3 mph N/A   Clear
10:55 AM 65.5 °F 48.7 °F 55% 30.23 in 10.0 mi NE 12.7 mph - N/A   Clear
11:15 AM 66.2 °F 48.9 °F 54% 30.23 in 10.0 mi NE 10.4 mph - N/A   Clear
11:35 AM 66.6 °F 48.2 °F 52% 30.22 in 10.0 mi NNE 10.4 mph 16.1 mph N/A   Clear
11:55 AM 67.5 °F 46.0 °F 46% 30.22 in 10.0 mi North 6.9 mph - N/A   Clear
12:15 PM 68.7 °F 44.4 °F 42% 30.21 in 10.0 mi NE 9.2 mph - N/A   Clear
12:35 PM 69.4 °F 44.1 °F 40% 30.21 in 10.0 mi ENE 6.9 mph 16.1 mph N/A   Clear
12:55 PM 69.6 °F 42.6 °F 38% 30.20 in 10.0 mi NE 11.5 mph 20.7 mph N/A   Clear
1:15 PM 70.0 °F 41.5 °F 36% 30.20 in 10.0 mi NNE 11.5 mph - N/A   Clear
1:35 PM 70.7 °F 38.5 °F 31% 30.19 in 10.0 mi NE 11.5 mph - N/A   Clear
1:55 PM 71.1 °F 37.9 °F 30% 30.18 in 10.0 mi NNE 9.2 mph - N/A   Clear
2:15 PM 71.4 °F 39.0 °F 31% 30.18 in 10.0 mi NE 8.1 mph - N/A   Clear
2:35 PM 71.8 °F 39.0 °F 30% 30.17 in 10.0 mi ENE 8.1 mph - N/A   Clear
2:55 PM 72.1 °F 38.5 °F 29% 30.17 in 10.0 mi NE 8.1 mph - N/A   Clear
3:15 PM 72.1 °F 37.2 °F 28% 30.17 in 10.0 mi NNE 4.6 mph - N/A   Clear
3:35 PM 72.9 °F 38.1 °F 28% 30.16 in 10.0 mi NE 12.7 mph - N/A   Clear
3:55 PM 72.7 °F 37.8 °F 28% 30.15 in 10.0 mi NE 8.1 mph - N/A   Clear
4:15 PM 72.9 °F 36.3 °F 26% 30.15 in 10.0 mi NNE 9.2 mph - N/A   Clear
4:35 PM 73.0 °F 35.8 °F 26% 30.15 in 10.0 mi ENE 9.2 mph - N/A   Clear
4:55 PM 72.7 °F 34.7 °F 25% 30.15 in 10.0 mi NE 6.9 mph - N/A   Clear
5:15 PM 72.5 °F 35.1 °F 25% 30.14 in 10.0 mi NE 10.4 mph - N/A   Clear
5:35 PM 71.8 °F 33.4 °F 24% 30.14 in 10.0 mi NE 6.9 mph - N/A   Clear
5:55 PM 71.4 °F 34.0 °F 25% 30.14 in 10.0 mi NE 6.9 mph - N/A   Clear
6:15 PM 70.2 °F 36.0 °F 29% 30.14 in 10.0 mi NE 5.8 mph - N/A   Clear
6:35 PM 68.2 °F 39.6 °F 35% 30.14 in 10.0 mi NNE 4.6 mph - N/A   Clear
6:55 PM 65.1 °F 45.0 °F 48% 30.14 in 10.0 mi NNE 4.6 mph - N/A   Clear
7:15 PM 62.6 °F 44.6 °F 52% 30.14 in 10.0 mi NNE 4.6 mph - N/A   Clear
7:35 PM 58.8 °F 47.8 °F 67% 30.14 in 10.0 mi NNE 4.6 mph - N/A   Clear
7:55 PM 56.5 °F 47.3 °F 71% 30.14 in 10.0 mi North 4.6 mph - N/A   Clear
8:15 PM 56.5 °F 46.9 °F 70% 30.15 in 10.0 mi Calm Calm - N/A   Clear
8:35 PM 54.1 °F 47.3 °F 78% 30.15 in 10.0 mi Calm Calm - N/A   Clear
8:55 PM 52.3 °F 47.3 °F 83% 30.15 in 10.0 mi Calm Calm - N/A   Clear
9:15 PM 52.7 °F 46.9 °F 81% 30.15 in 10.0 mi Calm Calm - N/A   Clear
9:35 PM 52.7 °F 46.4 °F 79% 30.15 in 10.0 mi North 3.5 mph - N/A   Clear
9:55 PM 51.8 °F 45.9 °F 80% 30.15 in 10.0 mi Calm Calm - N/A   Clear
10:15 PM 50.9 °F 45.9 °F 83% 30.16 in 10.0 mi Calm Calm - N/A   Clear
10:35 PM 49.5 °F 45.3 °F 86% 30.16 in 10.0 mi Calm Calm - N/A   Clear
10:55 PM 48.7 °F 45.5 °F 89% 30.16 in 10.0 mi Calm Calm - N/A   Clear
11:15 PM 48.0 °F 45.0 °F 89% 30.16 in 10.0 mi Calm Calm - N/A   Clear
11:35 PM 47.5 °F 44.4 °F 89% 30.16 in 10.0 mi Calm Calm - N/A   Clear
11:55 PM 47.7 °F 44.6 °F 89% 30.16 in 10.0 mi Calm Calm - N/A   Clear